Wind_Speed
42 40 39 38 35 34 32 31 30 30 30 30 30 29 27 27 29 31 31 32 32 33 34 35 36 37 36 36 36 34 34 30 25 23 18 10 8 13 13 12 12 8 4 2 6
45 43 41 40 39 39 36 35 35 34 33 33 33 31 31 28 31 32 32 33 33 35 36 36 37 38 38 37 36 33 30 25 23 18 16 12 3 4 10 11 10 9 4 4 6
48 47 45 43 42 41 39 37 37 37 35 36 35 33 32 33 31 34 34 34 35 36 37 37 38 37 36 37 35 32 26 22 20 17 16 11 5 3 8 8 10 9 6 5 5
50 50 49 47 45 44 43 41 40 40 39 37 37 36 36 37 37 37 38 37 38 39 40 38 39 37 35 34 32 29 23 20 17 16 15 12 3 7 12 10 11 9 7 4 6
52 51 51 49 49 47 46 45 43 43 42 42 41 40 41 40 39 40 38 38 39 40 41 39 37 35 33 31 30 25 20 18 16 15 12 10 7 3 7 10 7 8 7 6 4
53 53 52 51 50 49 48 48 46 45 44 45 44 44 43 43 41 40 41 41 40 41 39 36 34 33 29 27 24 21 18 16 16 12 11 6 9 4 2 8 4 7 11 6 1
53 53 54 53 52 50 50 49 48 47 48 48 46 46 46 47 42 42 43 43 40 38 35 31 31 29 25 23 22 21 20 16 16 12 12 7 8 11 8 4 4 8 12 12 9
52 52 52 52 52 51 51 50 50 49 49 48 47 47 47 46 42 42 42 43 39 33 30 27 29 27 22 20 22 22 19 15 16 13 14 9 12 14 6 5 6 9 11 15 14
50 51 52 52 51 52 52 52 51 50 50 49 48 48 48 47 45 43 41 40 36 30 27 27 29 25 21 18 18 19 18 16 14 15 17 12 9 10 9 4 8 7 5 10 14
49 50 51 52 51 52 52 52 52 52 51 50 48 47 47 46 43 40 37 37 34 29 25 26 28 25 21 17 17 19 18 16 14 14 18 16 16 17 12 8 5 9 1 5 8
47 48 50 50 51 52 52 52 51 51 49 48 46 44 44 42 40 36 34 33 32 29 26 27 31 30 22 20 17 20 18 16 14 14 18 19 20 15 11 14 12 9 7 1 6
46 47 47 48 50 50 52 52 51 49 49 47 45 44 43 41 39 34 34 34 32 32 30 31 34 31 26 23 20 22 17 14 14 15 18 19 19 18 13 13 10 7 9 7 2
39 41 43 46 47 48 49 49 50 50 50 48 47 45 44 42 39 37 36 37 36 34 35 36 38 37 30 27 25 23 18 10 15 18 17 19 20 20 19 15 14 15 6 10 12
35 35 36 38 40 43 46 47 48 49 50 49 48 46 43 40 40 41 39 38 39 39 37 38 39 38 33 33 30 26 20 13 18 21 16 18 22 25 25 25 23 21 19 15 14
34 35 35 34 34 34 34 37 41 42 44 44 44 45 44 42 41 41 41 40 40 40 40 40 38 37 36 36 31 32 24 18 19 22 20 17 21 24 29 30 27 27 26 19 12
33 34 34 33 33 32 30 30 30 31 34 36 40 42 44 43 42 42 41 41 40 39 39 37 36 37 40 34 31 32 24 20 20 24 24 16 22 23 23 23 25 25 22 16 11
32 32 32 31 30 31 31 29 27 26 30 32 33 35 35 37 38 37 36 36 35 35 35 34 36 36 35 31 29 27 26 26 26 26 23 19 22 25 24 24 26 27 24 20 13
31 30 29 29 29 29 29 30 29 29 29 28 27 28 28 28 29 30 29 28 27 27 26 30 33 34 32 29 26 27 25 26 28 28 23 20 23 27 25 27 29 35 28 20 16
30 28 27 26 27 28 28 29 28 28 27 26 25 25 26 27 25 23 22 22 22 25 27 30 32 30 28 27 26 26 23 20 24 27 26 23 24 26 25 28 31 35 28 23 19
29 26 24 24 26 28 26 26 26 24 24 24 23 23 23 20 20 18 19 22 25 25 27 29 31 31 30 26 25 23 21 19 20 23 24 24 27 27 29 31 32 35 28 24 21
30 26 23 23 25 27 27 25 23 24 24 20 20 21 19 17 17 18 20 21 21 22 21 18 27 31 28 21 21 19 18 19 20 20 20 22 25 25 27 28 32 34 27 24 24
32 28 24 22 25 27 26 24 23 24 23 23 21 18 17 16 14 14 13 17 13 15 8 6 9 15 15 15 16 18 20 19 16 15 16 19 20 22 23 27 31 30 24 23 23
35 30 26 23 26 28 26 25 27 27 25 22 19 18 17 15 12 10 9 10 6 4 2 11 13 13 14 16 17 18 18 17 15 15 16 18 19 21 22 24 26 27 18 19 17
38 34 29 27 27 29 28 29 29 26 23 23 21 19 18 15 13 11 8 4 3 3 4 7 9 11 13 15 16 17 16 14 13 13 15 17 18 19 19 21 24 24 14 13 15
40 38 33 30 29 29 29 29 27 26 25 25 23 20 19 15 13 9 8 6 5 5 5 5 5 5 7 8 11 14 12 12 12 14 14 15 18 18 18 20 22 21 16 13 13
43 40 37 34 34 32 31 29 26 25 22 25 21 21 19 17 13 9 6 4 1 1 2 2 3 5 8 10 11 13 14 15 15 14 14 16 17 17 18 20 21 24 23 18 16
44 43 41 39 37 36 34 30 27 24 23 23 22 19 16 15 12 10 9 6 4 3 2 3 5 5 6 9 10 12 14 17 19 19 20 18 18 19 21 22 24 26 27 27 25
Wind_Direction
238 238 240 243 247 248 251 254 257 261 266 271 273 277 279 282 287 291 296 298 303 307 310 312 316 319 326 330 334 346 343 347 350 356 1 20 43 28 17 10 10 35 60 234 299
239 239 240 242 245 249 252 255 259 262 266 268 270 275 280 282 286 288 292 296 301 303 306 308 311 314 320 322 327 337 337 341 342 346 351 353 18 332 352 2 9 11 9 300 297
240 242 242 244 247 249 252 254 258 261 263 266 269 272 276 282 282 287 291 295 298 301 303 303 304 308 312 315 321 327 334 336 334 339 341 340 34 5 15 15 11 7 8 315 291
241 242 244 245 247 250 254 255 258 262 265 266 268 273 277 281 286 288 291 293 297 299 299 302 301 303 305 309 312 319 331 329 329 333 332 334 32 71 41 18 355 358 357 325 301
243 244 245 248 250 253 254 255 259 262 263 265 266 270 273 278 282 286 290 291 293 294 295 297 297 298 300 302 308 317 325 321 319 324 324 328 0 97 44 27 11 13 3 357 11
246 246 247 248 250 252 254 256 258 260 261 264 268 271 273 276 278 285 285 287 289 293 293 293 293 291 294 299 305 310 315 313 311 306 302 302 316 254 126 57 62 35 32 23 3
244 246 247 249 251 252 254 255 257 259 262 263 266 268 272 274 277 279 280 284 288 291 291 292 289 287 291 296 296 300 302 302 297 279 279 286 293 282 243 93 46 69 65 31 16
243 245 247 249 250 252 253 255 257 259 260 262 264 267 269 272 274 274 278 282 284 286 288 288 282 284 288 291 296 300 300 296 289 276 260 257 259 278 279 208 139 117 68 44 17
243 244 247 249 251 252 253 255 256 258 259 261 263 266 268 270 271 272 275 277 279 280 280 281 280 285 288 294 295 294 294 291 276 272 258 245 242 269 290 292 191 175 68 67 25
245 245 246 247 248 250 251 253 255 256 259 261 264 265 267 270 271 270 270 271 273 274 275 277 281 281 286 289 291 289 288 287 281 272 257 247 234 252 256 292 301 224 252 60 38
246 246 246 246 247 248 249 251 253 255 257 259 261 263 264 267 268 269 268 269 271 272 274 275 277 277 285 285 281 280 280 283 280 267 257 249 251 257 245 267 289 302 281 82 39
245 246 246 246 247 248 247 248 251 254 255 257 258 259 261 263 265 264 266 267 268 271 271 271 273 280 281 280 273 274 276 274 266 260 253 259 254 270 259 253 248 266 293 286 289
245 246 247 247 247 247 247 248 249 251 252 254 255 256 258 260 263 263 263 266 267 269 271 274 276 276 273 270 268 268 269 256 264 259 244 249 250 259 271 271 248 240 249 310 265
245 245 246 247 247 247 248 248 248 250 252 253 253 254 256 257 259 261 262 264 269 270 271 271 271 274 271 265 264 263 266 248 240 262 256 245 245 247 256 262 271 274 277 280 278
246 246 245 246 247 249 249 248 248 248 249 251 251 251 252 254 255 259 262 264 266 269 268 268 270 271 267 260 258 257 257 251 246 250 260 264 259 245 258 267 272 278 283 293 250
247 246 246 247 246 246 246 246 247 248 247 246 245 246 248 251 253 257 259 261 263 264 266 268 267 265 265 269 266 261 257 249 249 246 254 252 265 267 267 271 275 275 280 277 254
246 246 247 248 247 243 242 242 241 239 237 237 241 245 247 250 251 254 256 258 261 263 266 266 263 262 265 267 264 262 254 244 242 247 253 244 248 260 267 271 277 277 278 279 264
246 246 245 244 242 241 239 237 236 237 239 242 242 242 244 246 248 251 255 257 259 263 270 268 265 262 261 260 260 258 253 248 245 246 253 249 247 259 260 263 266 271 273 272 261
244 243 243 239 235 235 234 233 235 238 239 241 242 241 238 239 245 246 247 253 262 266 273 271 265 259 254 251 250 254 252 248 245 246 250 253 254 259 258 259 261 263 267 265 252
238 238 239 235 231 231 231 231 229 232 230 227 226 230 233 229 233 244 258 269 273 275 280 263 249 241 240 240 244 247 246 240 236 236 240 245 250 253 256 258 258 262 262 259 253
232 231 233 232 228 228 228 223 220 219 221 215 208 214 220 230 242 258 268 274 281 292 285 257 235 222 223 231 238 242 246 242 236 239 237 235 240 242 249 254 256 254 252 246 244
228 227 227 229 224 222 220 210 206 207 202 200 205 218 231 241 250 252 263 268 278 293 260 139 181 192 200 217 219 225 233 240 243 244 246 245 244 248 249 249 254 262 259 255 250
225 223 219 224 219 216 212 203 196 197 199 206 216 228 233 228 223 233 247 253 257 319 139 134 136 161 184 201 214 227 236 244 245 241 238 242 242 244 246 256 262 268 267 267 261
222 220 216 220 219 216 209 196 196 200 212 217 218 217 221 219 215 221 219 217 164 123 123 132 158 188 201 213 223 233 244 252 253 248 243 243 240 237 240 248 257 265 267 264 259
219 218 213 216 215 210 202 199 205 214 216 223 222 215 211 205 208 184 167 157 151 140 141 149 165 202 238 242 239 243 248 246 241 242 242 243 241 235 238 247 259 268 272 268 265
218 216 211 212 212 207 203 206 214 220 213 217 215 207 201 198 195 182 174 186 214 279 262 264 248 212 221 243 242 242 246 248 249 246 244 244 248 251 251 249 255 268 271 266 266
215 214 210 210 210 208 205 210 214 214 203 198 204 206 202 198 195 187 181 194 207 192 256 276 274 276 270 264 261 253 248 249 249 248 250 249 252 253 254 256 258 262 269 275 273
Height
10966 10970 10973 10975 10978 10980 10982 10984 10986 10987 10988 10989 10990 10992 10994 10995 10995 10993 10993 10992 10993 10992 10991 10989 10988 10984 10984 10982 10980 10979 10975 10972 10970 10967 10968 10969 10968 10966 10964 10962 10961 10960 10960 10961 10962
10960 10963 10967 10970 10973 10975 10977 10979 10981 10982 10984 10985 10986 10988 10989 10991 10990 10990 10991 10990 10990 10989 10988 10988 10985 10983 10981 10979 10978 10978 10975 10972 10969 10967 10966 10968 10968 10965 10964 10962 10961 10961 10960 10959 10960
10953 10956 10960 10964 10967 10970 10972 10973 10975 10977 10979 10980 10982 10983 10985 10986 10986 10987 10987 10987 10987 10986 10985 10984 10983 10982 10980 10977 10976 10975 10974 10971 10968 10966 10965 10966 10965 10965 10963 10961 10960 10959 10959 10958 10957
10946 10950 10954 10957 10961 10963 10965 10968 10970 10971 10973 10975 10976 10978 10979 10980 10981 10981 10982 10983 10982 10982 10981 10981 10979 10979 10978 10976 10975 10974 10973 10969 10966 10965 10963 10963 10965 10965 10963 10961 10959 10957 10957 10956 10955
10938 10942 10946 10950 10953 10956 10959 10961 10963 10965 10966 10968 10970 10972 10974 10975 10976 10976 10977 10978 10978 10977 10976 10976 10976 10974 10974 10973 10972 10971 10970 10966 10965 10964 10963 10961 10963 10965 10963 10961 10959 10957 10956 10954 10954
10929 10933 10937 10941 10945 10949 10951 10953 10956 10958 10960 10961 10963 10965 10966 10967 10971 10972 10970 10971 10973 10972 10971 10971 10970 10969 10970 10970 10969 10968 10966 10964 10964 10963 10962 10960 10960 10961 10962 10962 10962 10959 10957 10956 10955
10920 10924 10929 10932 10936 10940 10942 10945 10947 10949 10952 10953 10955 10958 10959 10959 10965 10965 10963 10964 10967 10967 10966 10966 10965 10964 10966 10967 10966 10966 10964 10963 10962 10962 10961 10960 10958 10958 10961 10963 10963 10962 10959 10957 10956
10911 10915 10919 10923 10927 10930 10933 10936 10938 10940 10943 10945 10947 10950 10951 10953 10957 10957 10957 10958 10960 10961 10960 10960 10958 10960 10963 10964 10962 10961 10960 10959 10959 10959 10960 10960 10958 10956 10957 10960 10962 10961 10960 10957 10955
10901 10905 10909 10914 10918 10920 10923 10925 10928 10931 10933 10936 10940 10942 10943 10945 10948 10950 10952 10951 10953 10955 10955 10953 10953 10955 10958 10960 10959 10957 10956 10956 10956 10955 10956 10959 10957 10956 10955 10956 10958 10959 10958 10958 10957
10891 10895 10899 10904 10908 10910 10912 10915 10918 10922 10925 10928 10931 10934 10934 10937 10939 10943 10944 10944 10945 10948 10949 10948 10947 10950 10953 10955 10955 10953 10952 10953 10953 10953 10952 10954 10955 10954 10954 10954 10953 10955 10957 10957 10957
10882 10885 10889 10893 10897 10899 10903 10905 10909 10913 10917 10920 10922 10925 10926 10929 10932 10935 10936 10937 10939 10941 10943 10943 10941 10943 10949 10950 10950 10948 10949 10949 10949 10949 10949 10950 10950 10951 10953 10953 10951 10952 10954 10956 10956
10872 10875 10879 10883 10886 10889 10893 10896 10901 10905 10907 10910 10914 10917 10919 10921 10925 10928 10928 10929 10932 10933 10935 10935 10933 10937 10941 10943 10944 10943 10945 10946 10945 10945 10945 10946 10949 10948 10951 10952 10953 10952 10950 10953 10955
10863 10866 10870 10872 10876 10880 10883 10888 10892 10894 10897 10901 10904 10907 10911 10914 10917 10920 10921 10920 10923 10926 10927 10927 10927 10929 10934 10935 10936 10937 10941 10943 10939 10939 10943 10944 10945 10946 10947 10949 10949 10949 10951 10951 10951
10855 10858 10861 10864 10867 10870 10874 10878 10882 10885 10889 10891 10895 10898 10902 10906 10909 10909 10912 10914 10914 10916 10919 10919 10918 10919 10925 10926 10929 10930 10935 10938 10936 10934 10939 10941 10942 10942 10943 10944 10944 10945 10947 10948 10947
10848 10850 10854 10857 10860 10863 10867 10869 10872 10876 10879 10883 10886 10889 10893 10897 10899 10901 10903 10905 10907 10907 10907 10909 10911 10912 10912 10915 10921 10922 10928 10932 10932 10931 10932 10936 10935 10939 10938 10938 10938 10938 10940 10943 10944
10840 10843 10847 10851 10854 10857 10860 10862 10865 10868 10870 10873 10875 10878 10883 10888 10891 10893 10894 10896 10896 10898 10898 10901 10902 10902 10900 10908 10914 10915 10922 10926 10927 10926 10927 10932 10929 10930 10932 10932 10931 10932 10934 10937 10940
10833 10837 10840 10843 10847 10850 10853 10856 10859 10861 10861 10864 10868 10872 10876 10879 10882 10885 10886 10887 10888 10889 10890 10892 10893 10894 10896 10901 10904 10909 10914 10917 10919 10920 10922 10927 10927 10925 10926 10927 10924 10923 10927 10931 10935
10827 10830 10834 10837 10840 10842 10845 10849 10852 10854 10857 10860 10864 10867 10870 10872 10874 10877 10879 10880 10881 10882 10883 10884 10884 10886 10891 10895 10899 10901 10905 10908 10911 10913 10917 10921 10921 10919 10922 10921 10921 10915 10920 10925 10928
10820 10824 10826 10829 10832 10835 10839 10842 10847 10849 10852 10856 10859 10862 10864 10865 10869 10871 10872 10873 10875 10876 10875 10873 10876 10880 10884 10888 10890 10893 10898 10902 10903 10906 10909 10913 10914 10914 10914 10914 10912 10909 10914 10918 10921
10813 10817 10820 10823 10826 10829 10833 10837 10841 10845 10847 10850 10853 10856 10859 10862 10864 10866 10868 10868 10868 10867 10864 10862 10865 10871 10875 10880 10884 10887 10890 10894 10896 10898 10902 10905 10905 10906 10906 10905 10904 10902 10908 10912 10914
10806 10811 10814 10817 10820 10823 10827 10832 10836 10839 10842 10846 10849 10851 10855 10859 10861 10863 10863 10862 10861 10859 10855 10852 10855 10861 10868 10875 10878 10881 10883 10887 10889 10893 10896 10896 10896 10898 10897 10896 10894 10893 10899 10902 10904
10799 10805 10809 10812 10815 10818 10822 10827 10832 10835 10838 10842 10846 10849 10853 10855 10857 10858 10858 10858 10858 10855 10851 10850 10854 10859 10866 10870 10873 10875 10877 10880 10884 10888 10889 10889 10890 10889 10889 10887 10884 10888 10897 10900 10901
10792 10798 10803 10807 10810 10813 10818 10824 10827 10831 10835 10839 10843 10846 10848 10851 10853 10854 10854 10855 10855 10854 10853 10852 10854 10858 10862 10865 10868 10870 10872 10876 10879 10881 10881 10882 10883 10882 10883 10883 10883 10884 10893 10895 10898
10785 10791 10797 10801 10804 10808 10814 10819 10823 10827 10831 10834 10838 10841 10843 10847 10849 10851 10852 10853 10854 10854 10854 10854 10856 10858 10860 10862 10865 10867 10869 10872 10873 10874 10876 10876 10877 10878 10880 10879 10879 10881 10888 10889 10889
10776 10783 10791 10795 10799 10804 10809 10815 10820 10824 10827 10829 10833 10837 10840 10843 10846 10849 10850 10852 10852 10852 10853 10854 10856 10858 10859 10861 10863 10864 10866 10868 10869 10870 10871 10872 10872 10874 10877 10877 10875 10877 10880 10883 10884
10767 10775 10783 10788 10793 10799 10805 10810 10815 10819 10824 10826 10830 10833 10837 10840 10843 10848 10849 10850 10850 10851 10852 10853 10854 10856 10857 10858 10860 10862 10863 10864 10865 10866 10867 10869 10870 10872 10873 10873 10873 10872 10874 10878 10881
10756 10767 10775 10781 10787 10794 10799 10805 10809 10814 10819 10823 10826 10830 10834 10838 10841 10844 10847 10849 10850 10851 10852 10852 10853 10854 10855 10855 10856 10856 10857 10858 10859 10861 10863 10865 10867 10868 10867 10867 10868 10867 10868 10869 10872